Probability
1 2 3 3 1 0 0 0 0 0 0 0 0 0 0 0 0 0 0 0 0 0 0 0 0 0 0 0 0 0 0 0 0 0 0 0 0 0 0 0 0 0 0
0 1 3 3 2 1 0 0 0 0 0 0 0 0 0 0 0 0 0 0 0 0 0 0 0 0 0 0 0 0 0 0 0 0 0 0 0 0 0 0 0 0 0
0 1 2 3 3 1 0 1 1 1 0 0 0 0 0 0 0 0 0 0 0 0 0 0 0 0 0 0 0 0 0 0 0 0 0 0 0 0 0 0 0 0 0
0 1 2 2 2 2 1 1 2 2 1 0 0 0 0 0 0 0 0 0 0 0 0 0 0 0 0 0 0 0 0 0 0 0 0 0 0 0 0 0 0 0 0
0 0 1 1 1 1 1 0 1 2 1 0 0 0 0 0 0 0 0 0 0 0 0 0 0 0 0 0 0 0 0 0 0 0 0 0 0 0 0 0 0 0 0
0 0 0 0 0 0 0 0 1 1 1 1 1 0 0 0 0 0 0 0 0 0 0 0 0 0 0 0 0 0 0 0 0 0 0 0 0 0 0 0 0 0 0
0 0 0 0 0 0 0 1 1 1 1 2 2 1 1 0 0 0 0 0 0 0 0 0 0 0 0 0 0 0 0 0 0 0 0 0 0 0 0 0 0 0 0
0 0 0 0 0 0 0 1 1 1 1 1 2 2 2 1 0 0 0 0 0 0 0 0 0 0 0 0 0 0 0 0 0 0 0 0 0 0 0 0 0 0 0
0 0 0 0 0 0 0 0 1 1 1 1 1 1 2 2 1 1 0 0 0 0 0 0 0 0 0 0 0 0 0 0 0 0 0 0 0 0 0 0 0 0 0
0 0 0 0 0 0 0 0 0 1 1 0 0 0 1 2 2 2 1 0 0 0 0 0 0 0 0 0 0 0 0 0 0 0 0 0 0 0 0 0 0 0 0
0 0 0 0 0 0 0 0 0 0 0 0 0 0 0 1 1 1 1 0 0 0 0 0 0 0 0 0 0 0 0 0 0 0 0 0 0 0 0 0 0 0 0
0 0 0 0 0 0 0 0 0 0 0 0 0 0 0 0 0 0 0 0 0 0 0 0 0 0 0 0 0 0 0 0 0 0 0 0 0 0 0 0 0 0 0
0 0 0 0 0 0 0 0 0 0 0 0 0 0 0 0 0 0 0 0 0 0 0 0 0 0 0 0 0 0 0 0 0 0 0 0 0 0 0 0 0 0 0
0 0 0 0 0 0 0 0 0 0 0 0 0 0 0 0 0 0 0 0 0 0 0 0 0 0 0 0 0 0 0 0 0 0 0 0 0 0 0 0 0 0 0
0 0 0 0 0 0 0 0 0 0 0 0 0 0 0 0 0 0 0 0 0 0 0 0 0 0 0 0 0 0 0 0 0 0 0 0 0 0 0 0 0 0 0
0 0 0 0 0 0 0 0 0 0 0 0 0 0 0 0 0 0 0 0 0 0 0 0 0 0 0 0 0 0 0 0 0 0 0 0 0 0 0 0 0 0 0
0 0 0 0 0 0 0 0 0 0 0 0 0 0 0 0 0 0 0 0 0 0 0 0 0 0 0 0 0 0 0 0 0 0 0 0 0 0 0 0 0 0 0
0 0 0 0 0 0 0 0 0 0 0 0 0 0 0 0 0 0 0 0 0 0 0 0 0 0 0 0 0 0 0 0 0 0 0 0 0 0 0 0 0 0 0
0 0 0 0 0 0 0 0 0 0 0 0 0 0 0 0 0 0 0 0 0 0 0 0 0 0 0 0 0 0 0 0 0 0 0 0 0 0 0 0 0 0 0
0 0 0 0 0 0 0 0 0 0 0 0 0 0 0 0 0 0 0 0 0 0 0 0 0 0 0 0 0 0 0 0 0 0 0 0 0 0 0 0 0 0 0
0 0 0 0 0 0 0 0 0 0 0 0 0 0 0 0 0 0 0 0 0 0 0 0 0 0 0 0 0 0 0 0 0 0 0 0 0 0 0 0 0 0 0
0 0 0 0 0 0 0 0 0 0 0 0 0 0 0 0 0 0 0 0 0 0 0 0 0 0 0 0 0 0 0 0 0 0 0 0 0 0 0 0 0 0 0
0 0 0 0 0 0 0 0 0 0 0 0 0 0 0 0 0 0 0 0 0 0 0 0 0 0 0 0 0 0 0 0 0 0 0 0 0 0 0 0 0 0 0
0 0 0 0 0 0 0 0 0 0 0 0 0 0 0 0 0 0 0 0 0 0 0 0 0 0 0 0 0 0 0 0 0 0 0 0 0 0 0 0 0 0 0
0 0 0 0 0 0 0 0 0 0 0 0 0 0 0 0 0 0 0 0 0 0 0 0 0 0 0 0 0 0 0 0 0 0 0 0 0 0 0 0 0 0 0
0 0 0 0 0 0 0 0 0 0 0 0 0 0 0 0 0 0 0 0 0 0 0 0 0 0 0 0 0 0 0 0 0 0 0 0 0 0 0 0 0 0 0
Wind_Speed
8 8 8 7 7 7 8 8 8 9 8 7 7 7 7 6 6 6 7 8 8 8 8 6 6 6 6 6 6 5 5 5 3 3 4 6 9 10 8 7 7 7 8
8 8 7 7 8 8 7 8 8 8 8 7 7 6 6 5 6 5 7 8 8 9 8 9 7 7 6 7 7 6 4 4 4 4 3 4 4 5 7 6 6 6 5
9 7 7 6 6 7 8 7 8 8 8 7 5 5 4 4 5 6 6 8 8 8 8 9 7 7 7 7 7 7 7 6 5 6 4 3 4 3 3 5 5 5 4
8 6 5 5 6 6 5 6 6 7 7 7 6 7 7 8 8 6 6 6 8 8 8 8 8 7 7 7 7 7 6 6 6 5 6 5 3 2 4 3 3 4 5
8 6 4 4 4 4 4 4 5 6 6 6 7 8 7 7 5 4 6 7 7 8 8 8 7 8 7 7 7 7 7 6 6 5 3 5 5 6 5 6 4 4 4
6 6 4 3 3 3 3 3 3 4 5 6 7 8 8 7 6 5 5 5 5 6 8 8 8 7 7 7 7 7 7 7 7 5 4 4 4 4 6 7 6 6 5
6 5 4 3 3 2 2 2 3 4 3 4 6 7 7 8 8 6 6 5 5 5 7 8 8 7 7 7 6 6 7 7 7 7 6 6 6 4 4 6 6 6 5
3 4 4 3 2 2 2 2 3 3 3 3 4 4 5 5 5 6 5 5 5 5 5 7 7 7 7 7 6 6 7 6 7 8 7 6 5 5 5 5 5 7 6
4 3 3 3 3 3 2 2 2 2 2 2 2 3 3 4 4 4 4 3 3 3 4 5 6 6 6 6 6 5 6 6 6 6 6 6 5 5 5 5 5 6 8
3 3 2 2 2 2 1 1 1 2 2 1 1 1 2 2 2 2 2 2 2 2 2 3 4 4 5 5 5 4 4 5 5 4 5 6 5 4 4 4 5 6 7
3 3 2 1 2 1 1 1 0 0 0 1 1 1 2 2 2 2 2 2 2 2 2 3 3 3 3 3 4 4 4 5 4 4 5 5 4 4 3 3 4 5 5
3 2 2 2 2 1 0 1 1 0 1 1 1 1 1 1 1 1 1 1 1 1 1 2 2 2 2 2 3 4 4 5 5 4 4 4 3 4 3 3 4 5 5
3 3 2 2 2 1 1 1 0 0 1 1 0 0 1 1 1 1 1 0 1 1 1 1 1 1 1 1 1 2 3 3 3 3 4 4 3 4 3 4 4 4 4
3 3 3 3 3 2 2 1 1 0 1 1 0 0 0 0 0 0 0 0 1 1 1 1 1 1 1 1 0 1 1 2 2 2 2 3 3 3 4 3 4 4 4
4 4 4 4 4 3 3 3 2 1 1 1 1 0 1 1 1 1 1 1 1 1 1 1 1 1 1 1 1 0 1 1 2 2 2 1 2 3 3 3 3 3 4
5 5 5 4 4 4 3 3 3 2 2 2 1 1 1 1 1 1 1 2 2 1 2 1 1 1 1 2 2 1 1 1 1 1 1 1 1 3 4 4 5 4 5
5 5 5 5 5 4 3 3 3 2 2 2 2 1 1 1 1 1 1 1 1 1 1 1 1 1 1 2 2 2 1 1 1 1 1 1 2 2 3 4 5 4 5
4 3 3 2 2 2 2 2 2 2 2 2 2 1 1 1 1 1 1 1 1 1 1 1 1 2 3 4 3 2 0 0 1 1 1 1 2 3 4 4 4 4 4
2 2 1 1 1 2 2 2 2 3 3 2 2 1 2 2 2 2 1 1 1 1 1 2 2 2 2 4 4 4 1 0 1 1 2 2 2 5 6 4 5 5 5
1 1 1 0 1 1 2 2 3 3 3 2 2 1 1 2 2 1 1 1 1 1 2 2 2 2 2 3 4 4 1 1 1 1 1 2 3 5 6 4 4 6 6
1 1 1 0 0 1 2 2 2 2 1 1 1 1 1 1 1 1 1 2 2 2 2 2 1 1 1 2 4 4 1 1 1 1 1 2 6 7 7 6 4 6 7
0 1 1 0 1 1 2 2 2 1 2 2 2 1 1 1 1 1 1 2 2 2 2 2 1 1 1 2 3 4 3 3 1 1 2 3 6 7 8 6 6 8 7
0 0 1 1 1 2 1 2 0 1 2 3 2 1 1 1 1 1 2 2 2 2 1 1 1 1 1 2 3 3 4 4 2 2 4 6 7 6 5 6 8 5 3
1 1 2 1 1 2 2 2 1 2 3 3 2 2 2 1 1 1 1 1 1 2 2 1 1 0 0 0 1 1 2 3 3 2 3 5 6 5 5 4 5 3 3
1 1 2 2 1 1 2 2 1 2 3 2 2 2 2 2 2 1 1 1 0 1 2 2 2 1 1 1 2 1 1 1 1 1 1 2 2 3 3 3 3 3 3
1 1 1 1 1 1 1 1 1 1 2 3 2 2 2 1 2 2 2 3 2 2 1 1 0 0 1 3 3 4 4 4 3 1 1 1 2 2 3 3 4 3 3
Wind_Direction
226 211 202 192 182 182 183 186 189 190 187 190 193 198 205 205 207 210 208 205 205 204 206 210 211 210 209 208 207 206 216 220 212 240 265 258 246 242 239 234 236 239 237
237 220 200 190 183 184 187 190 193 192 193 195 196 199 200 205 207 209 211 209 207 205 206 209 211 211 212 213 213 208 210 215 197 201 240 283 286 251 234 227 229 236 238
240 227 200 190 179 187 190 193 196 196 198 197 190 190 198 209 208 210 211 212 209 207 208 209 211 211 210 217 216 210 210 220 212 203 206 231 254 298 274 231 226 229 236
238 233 203 186 186 188 186 191 194 196 198 194 193 193 199 207 211 207 206 206 205 207 210 212 213 215 214 218 219 215 215 216 225 217 218 227 231 262 293 284 248 237 239
223 219 206 192 181 176 183 194 199 200 198 198 198 199 211 217 214 203 200 201 201 203 209 213 215 218 219 219 216 214 215 217 223 221 216 231 240 235 249 273 276 270 251
206 203 196 175 172 166 173 191 202 208 204 204 204 204 211 215 214 210 205 201 200 202 207 213 216 218 219 221 220 219 217 219 221 224 218 212 220 225 235 254 264 267 264
195 187 184 180 171 167 177 190 202 214 209 207 209 211 212 215 216 215 211 204 203 206 208 209 214 218 220 220 217 219 223 221 222 226 228 227 231 230 235 251 266 269 269
180 175 169 167 169 178 189 191 195 210 214 214 216 217 217 219 222 221 217 213 211 210 205 206 211 216 219 219 217 219 222 224 227 231 232 236 237 235 234 242 258 274 274
183 173 163 168 183 191 190 190 194 203 216 224 221 219 223 224 225 222 218 218 215 209 205 202 207 213 216 217 216 221 222 223 227 231 233 238 243 240 240 241 239 255 274
162 149 149 162 167 156 162 175 197 208 213 220 218 216 222 221 225 220 214 209 210 199 190 199 207 211 215 215 216 220 221 224 229 230 236 241 244 246 243 243 247 244 258
171 160 151 141 117 99 103 152 189 218 205 207 219 214 225 218 209 208 215 213 205 195 193 194 197 203 208 208 210 218 217 224 231 231 236 243 246 250 251 251 254 255 258
162 150 145 137 125 118 72 7 350 326 290 248 217 205 215 210 201 206 216 206 200 195 189 182 185 195 204 210 217 224 225 227 230 234 238 250 254 253 255 255 255 256 256
176 167 163 170 174 176 195 235 278 305 320 300 245 190 189 191 200 208 213 197 176 140 125 138 164 183 188 206 235 239 242 242 241 242 242 249 252 255 263 264 264 268 271
208 199 194 190 188 187 193 203 217 237 262 259 213 147 169 124 103 72 67 80 123 131 125 120 139 154 156 160 263 273 257 253 259 259 257 260 258 265 272 268 272 280 279
228 224 218 207 195 192 199 198 203 204 205 193 165 189 57 58 49 43 41 55 78 90 101 101 89 82 104 60 47 286 245 237 252 262 264 267 283 300 295 294 292 295 288
242 238 229 214 211 204 201 199 196 195 188 186 189 169 108 85 68 50 52 65 69 71 88 109 118 100 72 55 56 19 275 252 245 275 316 318 319 322 313 306 300 292 285
252 241 227 215 209 206 198 201 194 180 177 180 172 156 140 134 128 112 96 96 86 82 94 97 93 87 63 51 47 24 332 308 288 285 314 329 357 342 328 323 319 304 293
256 258 247 235 213 188 170 169 171 175 176 176 166 151 153 166 159 153 155 141 108 108 109 89 82 71 47 39 36 26 25 30 5 3 0 346 353 349 343 328 316 304 303
263 271 266 245 218 174 157 154 179 177 174 186 189 182 177 182 178 184 178 146 117 108 97 89 82 76 51 43 39 33 2 30 26 24 16 357 342 350 352 337 317 312 314
339 346 356 41 161 155 137 160 187 180 190 192 190 182 170 173 185 191 156 115 119 119 103 83 71 73 62 45 39 30 25 3 9 20 16 355 346 342 344 327 311 306 313
335 11 26 7 340 89 132 163 176 197 188 135 123 116 122 147 149 145 119 107 107 105 98 89 72 68 55 40 39 30 21 353 342 349 348 338 343 339 336 328 310 308 315
319 52 53 9 28 86 146 170 194 146 95 109 115 114 96 104 124 145 125 118 125 124 114 101 77 51 30 28 27 23 16 5 341 328 328 326 336 335 335 335 333 334 334
230 88 119 87 33 48 101 155 107 92 108 111 112 108 91 84 110 150 150 138 138 142 139 121 100 29 26 15 23 17 6 2 358 338 330 327 332 336 337 343 343 344 335
194 138 127 138 14 32 57 90 98 104 120 127 128 131 131 116 93 102 132 140 146 153 154 150 162 225 323 360 22 20 7 5 1 354 339 334 337 343 342 341 342 336 317
178 159 169 170 155 66 59 62 70 109 128 138 141 134 125 131 121 99 95 114 108 168 175 183 179 192 242 288 327 337 329 328 325 339 333 336 340 349 345 340 332 328 326
157 157 161 158 139 102 78 43 28 117 146 152 147 137 128 121 119 116 86 67 74 62 72 116 162 250 290 313 317 318 326 340 346 1 320 331 332 327 326 325 323 319 317